CAPE
0 0 0 0 0 0 0 0 0 0 0 0 0 0 0 0 0 0 0 0 0 0 0 0 0 0 0 0 0 0 0 0 0 0 0 0 0 0 0 0 0 0 0 0 0
0 0 0 0 0 0 0 0 0 0 0 0 0 0 0 0 0 0 0 0 0 0 0 0 0 0 0 0 0 0 0 0 0 0 0 0 0 0 0 0 0 0 0 0 0
0 0 0 0 0 0 0 0 0 0 0 0 0 0 0 0 0 0 0 0 0 0 0 0 0 0 0 0 0 0 0 0 0 0 0 0 0 0 0 0 0 0 0 0 0
0 0 0 0 0 0 0 0 0 0 0 0 0 0 0 0 0 0 0 0 0 0 0 0 0 0 0 0 0 0 0 0 0 0 0 0 0 0 0 0 0 0 0 0 0
0 0 0 0 0 0 0 0 0 0 0 0 0 0 0 0 0 0 0 0 0 0 0 0 0 0 0 0 0 0 0 0 0 0 0 0 0 0 0 0 0 0 0 0 0
0 0 0 0 0 0 0 0 0 0 0 0 0 0 0 0 0 0 0 0 0 0 0 0 0 0 0 0 0 0 0 0 0 0 0 0 0 0 0 0 0 0 0 0 0
0 0 0 0 0 0 0 0 0 0 0 0 0 0 0 0 0 0 0 0 0 0 0 0 0 0 0 0 0 0 0 0 0 0 0 0 0 0 0 0 0 0 0 0 0
0 0 0 0 0 0 0 0 0 0 0 0 0 0 0 0 0 0 0 0 0 0 0 0 0 0 0 0 0 0 0 0 0 0 0 0 0 0 0 0 0 0 0 0 0
0 0 0 0 0 0 0 0 0 0 0 0 0 0 0 0 0 0 0 0 0 0 0 0 0 0 0 0 0 0 0 0 0 0 0 0 0 0 0 0 0 0 0 0 0
0 0 0 0 0 0 0 0 0 0 0 0 0 0 0 0 0 0 0 0 0 0 0 0 0 0 0 0 0 0 0 0 0 0 0 0 0 0 0 0 0 0 0 0 0
0 0 0 0 0 0 0 0 0 0 0 0 0 0 0 0 0 0 0 0 0 0 0 0 0 0 0 0 0 0 0 0 0 0 0 0 0 0 0 0 0 0 0 0 0
0 0 0 0 0 0 0 0 0 0 0 0 0 0 0 0 0 0 0 0 0 0 0 0 0 0 0 0 0 0 0 0 0 0 0 0 0 0 0 0 0 0 0 0 0
0 0 0 0 0 0 0 0 0 0 0 0 0 0 0 0 0 0 0 0 0 0 0 0 0 0 0 0 0 0 0 0 0 0 0 0 0 0 0 0 0 0 0 0 0
0 0 0 0 0 0 0 0 0 0 0 0 0 0 0 0 0 0 0 0 0 0 0 0 0 0 0 0 0 0 0 0 0 0 0 0 0 0 0 0 0 0 0 0 0
0 0 0 0 0 0 0 0 0 0 0 0 0 0 0 0 0 0 0 0 0 0 0 0 0 0 0 0 0 0 0 0 0 0 0 0 0 0 0 0 0 0 0 0 0
1 0 0 0 0 0 0 0 0 0 0 0 0 0 0 0 0 0 0 0 0 0 0 0 0 0 0 0 0 0 0 0 0 0 0 0 0 0 0 0 0 0 0 0 0
1 0 0 0 0 0 0 0 0 0 0 0 0 0 0 0 0 0 0 0 0 0 0 0 0 0 0 0 0 0 0 0 0 0 0 0 0 0 0 0 0 0 0 0 0
0 1 0 0 0 0 0 0 0 0 0 0 0 0 0 0 0 0 0 0 0 0 0 0 0 0 0 0 0 0 0 0 0 0 0 0 0 0 0 0 0 0 0 0 0
0 0 0 0 0 0 0 1 1 0 0 0 0 0 0 0 0 0 0 0 0 0 0 0 0 0 0 0 0 0 0 0 0 0 0 0 0 0 0 0 0 0 0 0 0
0 0 0 0 0 0 0 0 0 0 0 0 0 0 0 0 0 0 0 0 0 0 0 0 0 0 0 0 0 0 0 0 0 0 0 0 0 0 0 0 0 0 0 0 0
0 0 0 0 0 1 3 0 0 1 0 12 5 18 0 0 0 0 0 0 0 0 0 0 0 0 0 0 0 0 0 0 0 0 0 0 0 0 0 0 0 0 0 0 0
0 0 0 3 10 5 9 0 0 0 0 10 8 6 11 6 8 7 2 0 0 0 0 0 0 0 0 0 0 0 0 0 0 0 0 0 0 0 0 0 0 0 0 0 0
8 1 17 35 7 9 16 5 12 0 0 14 22 13 1 11 15 5 1 0 0 0 0 0 1 0 0 0 0 0 0 0 0 0 0 0 0 0 0 0 0 0 0 0 0
3 0 11 45 17 9 6 2 17 4 1 14 20 38 16 20 1 6 2 0 0 0 0 0 3 1 1 0 0 0 0 0 0 0 0 0 0 0 0 0 0 0 0 0 0
1 1 0 2 17 24 17 6 7 11 15 16 9 6 18 8 0 1 1 1 0 0 0 0 0 1 0 0 0 0 0 0 0 0 0 0 0 0 0 0 0 0 0 0 0
1 2 0 0 0 0 1 12 5 12 6 0 9 1 1 0 0 0 0 1 0 0 0 1 1 0 0 0 0 0 0 0 0 0 0 0 0 0 0 0 0 0 0 0 0
0 3 0 0 0 0 0 0 2 0 0 0 0 1 0 0 0 0 0 0 0 1 0 3 0 0 0 0 0 0 0 0 0 0 0 2 0 0 0 0 0 0 0 0 0
CIN
0 0 0 0 0 0 0 0 0 0 0 0 0 0 0 0 0 0 0 0 0 0 0 0 0 0 0 0 0 0 0 0 0 0 0 0 0 0 0 0 0 0 0 0 0
0 0 0 0 0 0 0 0 0 0 0 0 0 0 0 0 0 0 0 0 0 0 0 0 0 0 0 0 0 0 0 0 0 0 0 0 0 0 0 0 0 0 0 0 0
0 0 0 0 0 0 0 0 0 0 0 0 0 0 0 0 0 0 0 0 0 0 0 0 0 0 0 0 0 0 0 0 0 0 0 0 0 0 0 0 0 0 0 0 0
0 0 0 0 0 0 0 0 0 0 0 0 0 0 0 0 0 0 0 0 0 0 0 0 0 0 0 0 0 0 0 0 0 0 0 0 0 0 0 0 0 0 0 0 0
0 0 0 0 0 0 0 0 0 0 0 0 0 0 0 0 0 0 0 0 0 0 0 0 0 0 0 0 0 0 0 0 0 0 0 0 0 0 0 0 0 0 0 0 0
0 0 0 0 0 0 0 0 0 0 0 0 0 0 0 0 0 0 0 0 0 0 0 0 0 0 0 0 0 0 0 0 0 0 0 0 0 0 0 0 0 0 0 0 0
0 0 0 0 0 0 0 0 0 0 0 0 0 0 0 0 0 0 0 0 0 0 0 0 0 0 0 0 0 0 0 0 0 0 0 0 0 0 0 0 0 0 0 0 0
0 0 0 0 0 0 0 0 0 0 0 0 0 0 0 0 0 0 0 0 0 0 0 0 0 0 0 0 0 0 0 0 0 0 0 0 0 0 0 0 0 0 0 0 0
0 0 0 0 0 0 0 0 0 0 0 0 0 0 0 0 0 0 0 0 0 0 0 0 0 0 0 0 0 0 0 0 0 0 0 0 0 0 0 0 0 0 0 0 0
0 0 0 0 0 0 0 0 0 0 0 0 0 0 0 0 0 0 0 0 0 0 0 0 0 0 0 0 0 0 0 0 0 0 0 0 0 0 0 0 0 0 0 0 0
0 0 0 0 0 0 0 0 0 0 0 0 0 0 0 0 0 0 0 0 0 0 0 0 0 0 0 0 0 0 0 0 0 0 0 0 0 0 0 0 0 0 0 0 0
0 0 0 0 0 0 0 0 0 0 0 0 0 0 0 0 0 0 0 0 0 0 0 0 0 0 0 0 0 0 0 0 0 0 0 0 0 0 0 0 0 0 0 0 0
0 0 0 0 0 0 0 0 0 0 0 0 0 0 0 0 0 0 0 0 0 0 0 0 0 0 0 0 0 0 0 0 0 0 0 0 0 0 0 0 0 0 0 0 0
0 0 0 0 0 0 0 0 0 0 0 0 0 0 0 0 0 0 0 0 0 0 0 0 0 0 0 0 0 0 0 0 0 0 0 0 0 0 0 0 0 0 0 0 0
0 0 0 0 0 0 0 0 0 0 0 0 0 0 0 0 0 0 0 0 0 0 0 0 0 0 0 0 0 0 0 0 0 0 0 0 0 0 0 0 0 0 0 0 0
0 0 0 0 0 0 0 0 0 0 0 0 0 0 0 0 0 0 0 0 0 0 0 0 0 0 0 0 0 0 0 0 0 0 0 0 0 0 0 0 0 0 0 0 0
0 0 0 0 0 0 0 0 0 0 0 0 0 0 0 0 0 0 0 0 0 0 0 0 0 0 0 0 0 0 0 0 0 0 0 0 0 0 0 0 0 0 0 0 0
0 0 0 0 0 0 0 0 0 0 0 0 0 0 0 0 0 0 0 0 0 0 0 0 0 0 0 0 0 0 0 0 0 0 0 0 0 0 0 0 0 0 0 0 0
0 0 -1 0 0 0 0 -1 -1 0 0 0 0 0 0 0 0 0 0 0 0 0 0 0 0 0 0 0 0 0 0 0 0 0 0 0 0 0 0 0 0 0 0 0 0
0 0 0 0 0 0 0 0 -1 0 0 0 0 0 0 0 0 0 0 0 0 0 0 0 0 0 0 0 0 0 0 0 0 0 0 0 0 0 0 0 0 0 0 0 0
0 0 0 0 0 0 -7 0 0 -2 0 -4 -3 -3 -1 0 0 0 0 0 0 0 0 0 0 0 0 0 0 0 0 0 0 0 0 0 0 0 0 0 0 0 0 0 0
0 0 0 -41 -2 -5 0 -2 0 0 0 -9 -15 -10 -1 -1 -3 -4 -3 0 0 0 0 0 0 0 0 0 0 0 0 0 0 0 0 0 0 0 0 0 0 0 0 0 0
-1 0 -6 -10 0 0 0 -4 -1 0 0 -2 -2 -3 0 -3 -1 -6 -1 0 0 0 0 0 -3 0 0 0 0 0 0 0 0 0 0 0 0 0 0 0 0 0 0 0 0
-3 0 -1 0 -1 0 -1 -1 0 -4 -3 -6 -1 -1 -3 -2 0 -1 -1 0 0 0 -5 0 -26 -19 -9 0 -4 0 0 0 0 0 0 0 0 0 0 0 0 0 0 0 0
-1 -3 0 0 0 -1 -1 -3 0 -2 -2 -5 -11 -2 -1 -7 -2 -2 0 0 0 0 0 0 0 -3 0 0 0 -8 0 0 0 0 0 0 0 0 0 0 0 0 0 0 0
0 -3 0 0 0 0 -19 0 -3 0 -20 0 0 0 0 0 0 0 0 -1 0 0 0 0 0 0 0 0 0 0 0 0 0 0 0 0 0 0 0 0 0 0 0 0 0
0 -1 0 0 0 0 0 0 -2 0 0 0 0 0 0 0 0 0 0 0 0 0 0 0 0 0 0 0 0 0 0 0 0 0 0 -40 0 0 0 0 0 0 0 0 0
Wind_Speed
22 22 23 24 24 24 24 24 25 25 25 25 26 26 25 24 20 15 6 7 10 7 11 12 13 13 14 13 12 14 15 14 14 14 16 14 12 12 13 12 9 6 8 11 9
23 24 25 25 26 26 26 27 27 27 27 27 28 28 27 25 20 15 11 9 8 6 9 10 12 13 15 14 13 12 15 14 12 16 17 16 12 14 14 12 9 7 8 10 6
25 26 26 27 28 28 28 29 29 28 28 29 29 29 28 24 25 18 16 7 5 4 10 11 15 14 18 15 14 14 16 15 15 17 18 20 18 15 14 12 8 6 5 5 1
26 27 27 29 29 30 30 31 31 30 30 30 30 30 27 20 24 15 13 10 8 8 11 14 15 19 20 19 16 21 17 17 21 21 21 22 22 21 13 12 15 10 10 4 4
27 28 28 29 30 31 32 33 33 32 31 30 30 28 22 23 22 18 13 12 11 11 12 14 16 20 24 22 22 21 23 22 20 21 23 24 21 21 15 16 16 16 14 9 8
27 28 29 30 31 33 34 35 35 34 32 31 30 24 21 26 19 13 11 12 12 11 15 14 19 18 26 25 25 26 28 28 25 23 25 27 27 23 16 25 17 15 15 14 13
27 28 30 31 33 35 36 37 37 36 34 31 26 21 23 20 22 15 14 18 17 16 17 16 17 20 23 28 26 28 33 35 22 27 26 25 22 17 18 23 18 16 13 15 16
27 29 31 32 34 36 38 38 38 38 35 28 20 20 26 24 21 18 17 21 19 17 20 20 17 21 24 26 29 30 31 33 31 23 22 19 24 17 25 22 16 16 15 15 17
28 29 31 33 36 38 39 40 39 32 24 20 20 21 28 21 21 19 16 20 19 19 19 19 18 19 22 22 33 29 25 24 28 22 25 19 23 26 29 23 20 20 18 17 18
27 28 31 34 36 38 40 38 26 24 21 20 22 25 23 22 19 18 16 16 20 18 21 19 20 19 18 21 22 24 27 26 23 30 26 24 26 28 30 30 29 25 24 23 21
27 28 31 33 36 37 36 27 28 27 25 26 26 27 26 24 21 20 18 17 20 22 22 21 20 19 19 20 22 28 28 28 27 33 32 29 30 28 31 37 28 27 27 26 25
27 28 29 33 35 34 28 26 26 28 41 33 31 30 29 25 30 24 18 23 23 26 25 25 24 22 28 27 26 28 29 31 33 33 33 32 36 30 28 30 30 31 29 30 29
28 28 28 32 34 26 26 26 25 25 38 40 31 32 31 24 30 31 19 24 27 28 27 29 30 27 27 29 31 31 32 35 35 40 37 44 48 36 32 25 25 27 28 31 28
28 27 26 30 25 29 26 27 25 25 41 40 32 27 23 18 24 20 15 20 22 26 27 28 30 27 27 28 28 35 31 35 36 38 45 30 63 34 36 33 30 31 31 27 26
27 25 23 23 27 27 25 25 24 26 45 27 24 20 19 20 21 23 19 24 30 29 27 31 30 29 28 30 28 36 32 35 38 38 43 40 42 50 36 38 34 26 27 28 27
27 26 20 21 24 22 22 24 25 35 42 30 24 24 24 25 27 26 24 23 26 31 31 34 32 31 33 33 30 32 35 35 35 36 50 43 39 63 41 36 33 35 35 35 31
26 23 20 22 28 20 21 25 39 39 31 32 30 27 29 30 28 25 28 29 33 41 43 38 37 35 32 38 33 32 36 45 46 42 50 42 36 52 38 40 42 39 36 38 34
27 24 22 24 19 20 23 30 43 37 36 34 36 37 40 33 36 34 35 41 35 35 44 51 64 34 30 31 38 37 35 41 53 55 56 40 51 51 43 39 34 35 38 38 37
31 29 27 25 20 19 25 44 45 38 38 43 46 51 49 41 38 35 40 47 38 33 44 46 54 39 37 34 31 40 44 38 50 48 53 53 55 53 49 43 36 37 43 43 37
33 34 33 25 17 24 38 54 47 40 39 40 52 43 56 49 45 43 43 41 41 37 36 45 55 47 41 37 37 37 33 45 42 52 59 51 52 51 43 48 45 42 39 44 44
34 41 34 20 20 33 50 53 49 42 41 47 53 55 57 61 51 51 49 49 42 40 38 42 47 54 48 48 49 42 44 42 45 47 62 65 55 46 48 41 39 42 40 42 34
33 43 26 16 34 39 50 48 41 49 41 47 47 52 57 55 60 61 61 53 42 42 50 47 47 56 57 52 45 47 49 47 53 58 54 59 61 47 44 47 51 46 44 38 37
34 37 24 23 45 45 44 47 45 51 49 46 47 49 53 56 61 57 60 53 57 56 51 45 49 60 54 53 54 56 54 49 50 52 60 66 63 44 44 51 44 43 46 47 46
33 41 34 34 41 45 48 52 52 45 50 49 51 50 57 60 60 67 69 56 48 48 45 43 55 61 71 64 46 49 45 47 53 62 66 63 63 52 53 46 49 49 54 53 55
30 37 34 41 43 44 45 48 53 55 44 45 47 50 52 56 56 58 53 51 50 52 46 43 61 59 61 60 60 60 61 60 58 60 64 64 59 51 56 63 53 51 51 51 52
33 36 35 41 40 41 40 43 46 45 42 46 47 43 43 47 47 54 45 43 44 40 42 42 55 57 62 55 56 64 61 60 62 64 63 61 64 59 65 72 70 61 61 56 54
27 28 33 39 40 43 45 45 44 39 39 38 41 48 51 48 45 49 50 52 52 57 60 53 56 59 70 59 59 64 56 57 57 53 52 62 62 63 63 62 65 57 44 43 46
Wind_Direction
322 324 324 324 323 321 319 320 321 322 322 321 321 321 322 321 337 351 24 22 18 54 25 23 19 19 14 11 16 14 3 4 10 14 10 18 17 21 18 13 26 41 17 14 57
322 324 324 323 321 319 318 319 321 321 320 319 318 319 323 330 337 336 347 355 7 43 7 1 355 358 351 353 357 355 344 350 2 354 351 354 355 354 354 355 354 354 356 2 80
318 320 321 321 321 319 318 319 319 321 323 322 320 318 319 332 324 335 350 21 18 22 344 344 340 340 329 336 334 336 325 332 331 333 335 334 334 338 335 325 327 318 315 337 350
317 319 320 318 318 317 316 315 315 316 317 319 321 320 322 335 316 348 2 4 357 344 332 323 323 319 319 318 321 315 314 314 321 322 325 324 326 321 313 300 327 322 325 302 256
315 316 317 317 316 314 312 310 310 311 312 316 319 323 331 320 314 329 338 340 337 329 312 310 309 310 308 314 314 305 309 311 311 313 315 318 311 312 291 306 308 312 311 285 263
313 315 315 315 313 312 309 306 305 307 310 312 315 323 322 311 327 338 340 335 327 322 314 308 309 307 308 307 306 313 312 311 312 310 311 309 309 314 266 314 300 286 278 276 261
313 314 313 313 311 308 305 302 301 302 305 308 315 320 312 307 320 326 323 319 318 315 309 307 306 309 316 311 312 311 309 309 299 306 302 311 295 283 262 314 308 303 290 274 263
312 312 312 311 311 308 304 301 298 297 301 310 316 316 308 315 319 313 312 313 316 314 314 315 311 305 304 311 312 312 312 310 315 321 319 309 263 273 312 310 293 296 290 286 280
310 311 312 311 311 309 306 301 299 306 312 316 315 313 309 322 316 315 315 312 315 316 317 320 314 306 309 306 306 308 299 298 307 311 313 297 294 293 311 307 300 300 293 288 278
311 313 312 313 313 312 308 308 317 317 317 316 313 310 310 315 320 322 317 316 315 315 313 311 309 303 306 302 289 296 305 306 300 316 308 295 277 297 302 302 302 300 299 296 285
311 313 314 315 316 316 318 320 313 311 310 301 305 303 309 312 315 310 313 307 310 307 303 305 297 284 279 278 282 303 300 295 299 307 307 294 278 275 293 297 289 284 282 279 274
308 311 315 316 318 319 326 321 319 312 299 301 296 293 294 305 300 301 307 299 297 294 299 301 280 284 298 299 293 290 285 288 295 301 301 295 279 290 288 281 285 289 282 277 279
304 309 314 315 316 325 324 325 325 322 304 300 301 299 299 295 291 294 289 296 296 294 289 281 294 298 292 293 295 286 289 294 294 306 303 306 278 295 298 284 275 281 276 291 287
303 307 312 313 314 318 317 325 326 327 303 302 301 306 310 309 305 315 306 301 301 300 300 297 302 294 293 292 293 290 297 297 299 305 304 310 281 307 306 299 299 299 298 291 291
302 305 310 312 311 312 318 325 330 323 296 307 307 326 322 307 314 314 314 303 296 299 302 300 305 303 296 292 297 295 304 300 300 301 304 300 300 306 308 305 306 305 305 302 299
303 305 308 309 310 310 322 325 322 297 287 300 306 307 306 305 307 310 310 311 310 302 297 294 300 299 298 303 298 302 303 304 303 300 293 295 295 295 304 303 304 308 306 304 304
305 305 300 305 301 312 316 313 296 282 298 296 299 305 304 302 306 308 305 300 300 302 300 304 300 299 295 297 299 296 298 298 297 294 292 301 292 287 304 306 302 304 306 305 302
310 306 302 298 302 311 306 293 280 284 283 289 295 299 295 299 300 301 299 296 295 296 298 298 293 301 304 292 298 293 287 287 293 292 293 297 290 293 303 305 302 301 302 304 299
303 299 296 296 293 298 291 279 280 284 288 287 290 289 289 294 296 297 294 292 295 289 290 296 292 301 298 299 295 295 287 288 289 292 291 290 292 298 299 302 306 307 305 303 301
297 294 290 292 284 288 280 273 278 283 285 286 284 288 287 291 293 292 292 297 297 290 289 294 292 295 297 298 292 287 297 291 290 290 289 290 291 294 297 305 307 309 310 305 305
293 289 292 282 280 279 273 276 281 283 284 283 282 284 284 288 289 288 289 293 294 295 293 296 291 288 293 289 290 291 286 288 290 286 287 289 289 286 295 299 306 308 311 311 316
290 284 292 274 275 278 274 277 284 281 283 282 286 283 285 287 287 285 285 284 294 294 291 293 291 287 283 286 288 286 286 284 283 286 284 286 286 289 290 292 294 297 299 301 307
288 286 289 278 276 274 280 280 281 282 281 285 284 284 285 284 286 284 285 287 287 288 289 291 288 288 290 289 285 282 283 280 281 281 280 284 288 289 292 290 290 293 292 292 294
292 286 284 277 276 280 280 279 280 283 283 284 284 285 286 283 285 286 286 290 291 287 287 289 282 280 283 286 294 291 286 283 281 280 282 280 285 286 288 291 289 289 287 292 292
291 286 288 284 278 280 280 283 282 283 285 286 286 285 286 288 291 290 292 292 293 291 291 287 282 284 284 284 285 284 284 284 279 278 279 283 283 285 286 284 289 293 294 294 293
289 289 291 285 287 285 285 283 284 287 287 286 286 290 292 289 292 292 297 297 294 299 301 300 290 291 287 286 285 284 284 283 278 278 280 281 280 284 283 280 284 290 292 291 289
298 297 294 287 287 285 284 284 286 292 290 289 293 293 290 293 297 294 294 292 289 289 288 289 290 290 287 294 296 290 283 284 284 283 283 283 285 287 283 283 284 293 296 296 297